This is the latest recevied weather packets stored in our database for station/object SP2WPY-13. If no packets are shown the sender has not sent any weather packets the latest 10 day(s).
| Time | Temp. | Humidity | Pressure | Rain* | Wind** | Luminosity | Snow |
|---|---|---|---|---|---|---|---|
| 1787562330 | 18.33° C | 89% | 1022 hPa | - | - | - | - |
| 1787562010 | 18.33° C | 87% | 1022 hPa | - | - | - | - |
| 1787561737 | 19.44° C | 89% | 1021.9 hPa | - | - | - | - |
| 1787561416 | 18.89° C | 95% | 1021.8 hPa | - | - | - | - |
| 1787561143 | 18.33° C | 94% | 1021.8 hPa | - | - | - | - |
| 1787560822 | 17.78° C | 97% | 1021.9 hPa | - | - | - | - |
| 1787560504 | 18.33° C | 93% | 1021.8 hPa | - | - | - | - |
| 1787560229 | 18.33° C | 96% | 1021.7 hPa | - | - | - | - |
| 1787559909 | 17.78° C | 97% | 1021.8 hPa | - | - | - | - |
| 1787559636 | 18.33° C | 95% | 1021.7 hPa | - | - | - | - |
| 1787559316 | 18.33° C | 100% | 1021.5 hPa | - | - | - | - |
| 1787559043 | 17.78° C | 100% | 1021.5 hPa | - | - | - | - |
| 1787558723 | 16.67° C | 100% | 1021.4 hPa | - | - | - | - |
| 1787558401 | 16.67° C | 100% | 1021.5 hPa | - | - | - | - |
| 1787558127 | 16.67° C | 100% | 1021.4 hPa | - | - | - | - |
| 1787557807 | 17.22° C | 100% | 1021.4 hPa | - | - | - | - |
| 1787557534 | 16.67° C | 100% | 1021.4 hPa | - | - | - | - |
| 1787557215 | 16.11° C | 100% | 1021.4 hPa | - | - | - | - |
| 1787556941 | 16.11° C | 100% | 1021.4 hPa | - | - | - | - |
| 1787556621 | 16.67° C | 100% | 1021.3 hPa | - | - | - | - |
| 1787556301 | 16.11° C | 100% | 1021.3 hPa | - | - | - | - |
| 1787556026 | 16.11° C | 100% | 1021.3 hPa | - | - | - | - |
| 1787555707 | 16.11° C | 100% | 1021.2 hPa | - | - | - | - |
| 1787555433 | 15.56° C | 100% | 1021.2 hPa | - | - | - | - |
| 1787555113 | 15.56° C | 100% | 1021.2 hPa | - | - | - | - |
* Rain since midnight (hover to see other rain measurements)
** Current wind speed in m/s (hover to see current wind gust speed)